Location: Bouchavesnes-Bergen
(49.9859°N, 2.9203°E)
Time: 01:26:56
(UTC+00:00)

IDEFIX/ARIANE 42P - Pass Details

Date: 29 September 2022
Orbit: 784 x 803 km, 98.5° (Epoch: 05 December)

Event Time Altitude Azimuth Distance (km) Brightness Sun altitude
Rises 01:32:33 0° 19° (NNE) 3,329 6.7 -36.6°
Reaches altitude 10° 01:35:00 10° 25° (NNE) 2,393 5.8 -36.4°
Enters shadow 01:38:10 33° 49° (NE) 1,343 4.1 -36.1°
